Location: Chassagnes
(44.4047°N, 4.1657°E)
Time: 13:08:40
(UTC+00:00)

DMSP B5D1-3 - Pass Details

Date: 27 October 2020
Orbit: 768 x 780 km, 98.5° (Epoch: 23 November)

Event Time Altitude Azimuth Distance (km) Brightness Sun altitude
Rises 18:32:44 0° 14° (NNE) 3,267 7.6 -20.8°
Reaches altitude 10° 18:35:03 10° 16° (NNE) 2,337 6.9 -21.2°
Maximum altitude 18:40:13 81° 103° (ESE) 794 4.4 -22.1°
Drops below altitude 10° 18:45:22 10° 192° (SSW) 2,325 7.1 -23.1°
Sets 18:47:40 0° 193° (SSW) 3,249 7.9 -23.5°
